timestamp,wind_dir_avg,wind_spd_avg,wind_spd_max_dir,wind_spd_gust,battery_voltage,lat,long
2023-11-22 00:04:00+00:00,2.0,7.31,5.0,8.25,12.41,47.59359,-54.27349
2023-11-22 00:14:00+00:00,19.0,6.44,25.0,7.32,12.41,47.59359,-54.27349
2023-11-22 00:24:00+00:00,15.0,5.95,16.0,7.4,12.41,47.59359,-54.27349
2023-11-22 00:34:00+00:00,14.0,6.68,17.0,8.21,12.41,47.59359,-54.27349
2023-11-22 00:44:00+00:00,9.0,6.08,9.0,7.15,12.41,47.59359,-54.27349
2023-11-22 00:54:00+00:00,15.0,6.26,18.0,7.56,12.41,47.59359,-54.27349
2023-11-22 01:04:00+00:00,19.0,6.16,14.0,7.05,12.41,47.59359,-54.27349
2023-11-22 01:14:01+00:00,1.0,6.55,4.0,8.42,12.33,47.59359,-54.27349
2023-11-22 01:24:01+00:00,2.0,6.01,7.0,7.09,12.33,47.59359,-54.27349
2023-11-22 01:34:01+00:00,9.0,5.79,4.0,7.56,12.33,47.59359,-54.27349
2023-11-22 01:44:01+00:00,18.0,6.51,20.0,8.33,12.33,47.59359,-54.27349
2023-11-22 01:54:01+00:00,17.0,6.81,17.0,7.95,12.33,47.59359,-54.27349
2023-11-22 02:04:01+00:00,14.0,5.91,18.0,7.36,12.33,47.59359,-54.27349
2023-11-22 02:14:00+00:00,19.0,6.23,25.0,7.7,12.33,47.59359,-54.27349
2023-11-22 02:24:00+00:00,359.0,8.53,3.0,9.68,12.33,47.59359,-54.27349
2023-11-22 02:34:00+00:00,17.0,7.23,17.0,9.38,12.33,47.59359,-54.27349
2023-11-22 02:44:00+00:00,12.0,6.56,19.0,8.43,12.33,47.59359,-54.27349
2023-11-22 02:54:00+00:00,19.0,7.94,16.0,8.99,12.33,47.59359,-54.27349
2023-11-22 03:04:00+00:00,19.0,8.02,17.0,9.23,12.33,47.59359,-54.27349
2023-11-22 03:14:00+00:00,28.0,8.23,25.0,9.33,12.33,47.59359,-54.27349
2023-11-22 03:24:00+00:00,10.0,6.91,20.0,8.7,12.33,47.59359,-54.27349
2023-11-22 03:34:00+00:00,10.0,6.34,21.0,7.68,12.33,47.59359,-54.27349
2023-11-22 03:44:00+00:00,26.0,6.3,26.0,7.28,12.33,47.59359,-54.27349
2023-11-22 03:54:00+00:00,8.0,5.84,5.0,7.33,12.33,47.59359,-54.27349
2023-11-22 04:04:00+00:00,347.0,5.97,337.0,7.12,12.33,47.59359,-54.27349
2023-11-22 04:14:00+00:00,10.0,6.27,19.0,7.99,12.25,47.59359,-54.27349
2023-11-22 04:24:00+00:00,6.0,4.65,356.0,5.68,12.25,47.59359,-54.27349
2023-11-22 04:34:00+00:00,2.0,4.84,353.0,5.44,12.25,47.59359,-54.27349
2023-11-22 04:44:00+00:00,349.0,5.81,352.0,6.68,12.25,47.59359,-54.27349
2023-11-22 04:54:00+00:00,8.0,5.36,1.0,6.45,12.25,47.59359,-54.27349
2023-11-22 05:04:00+00:00,2.0,5.59,6.0,6.96,12.25,47.59359,-54.27349
2023-11-22 05:14:01+00:00,353.0,5.02,345.0,5.55,12.25,47.59359,-54.27349
2023-11-22 05:24:01+00:00,350.0,6.04,356.0,6.89,12.25,47.59359,-54.27349
2023-11-22 05:34:01+00:00,353.0,5.73,356.0,6.54,12.25,47.59359,-54.27349
2023-11-22 05:44:01+00:00,357.0,6.64,359.0,7.35,12.25,47.59359,-54.27349
2023-11-22 05:54:01+00:00,346.0,6.16,344.0,7.29,12.25,47.59359,-54.27349
2023-11-22 06:04:01+00:00,344.0,7.02,342.0,8.65,12.25,47.59359,-54.27349
2023-11-22 06:14:01+00:00,343.0,7.79,341.0,10.1,12.25,47.59359,-54.27349
2023-11-22 06:24:01+00:00,348.0,7.22,342.0,8.83,12.25,47.59359,-54.27349
2023-11-22 06:34:01+00:00,341.0,7.71,343.0,9.26,12.25,47.59359,-54.27349
2023-11-22 06:44:01+00:00,352.0,7.78,358.0,9.81,12.25,47.59359,-54.27349
2023-11-22 06:54:01+00:00,353.0,7.99,351.0,9.98,12.25,47.59359,-54.27349
2023-11-22 07:04:01+00:00,353.0,8.14,347.0,9.38,12.25,47.59359,-54.27349
2023-11-22 07:14:00+00:00,358.0,7.43,355.0,8.72,12.25,47.59359,-54.27349
2023-11-22 07:24:00+00:00,357.0,7.0,355.0,8.59,12.25,47.59359,-54.27349
2023-11-22 07:34:00+00:00,354.0,8.09,357.0,9.47,12.25,47.59359,-54.27349
2023-11-22 07:44:00+00:00,4.0,7.27,8.0,9.26,12.25,47.59359,-54.27349
2023-11-22 07:54:00+00:00,359.0,7.66,356.0,9.51,12.25,47.59359,-54.27349
2023-11-22 08:04:00+00:00,358.0,7.05,10.0,8.17,12.25,47.59359,-54.27349
2023-11-22 08:14:00+00:00,343.0,7.15,340.0,9.51,12.17,47.59359,-54.27349
2023-11-22 08:24:00+00:00,345.0,8.24,351.0,9.33,12.17,47.59359,-54.27349
2023-11-22 08:34:00+00:00,352.0,7.08,341.0,8.62,12.17,47.59359,-54.27349
2023-11-22 08:44:00+00:00,352.0,7.57,348.0,9.05,12.17,47.59359,-54.27349
2023-11-22 08:54:00+00:00,354.0,8.03,351.0,9.98,12.17,47.59359,-54.27349
2023-11-22 09:04:00+00:00,355.0,8.05,1.0,9.76,12.17,47.59359,-54.27349
2023-11-22 09:14:00+00:00,0.0,6.94,355.0,8.7,12.17,47.59359,-54.27349
2023-11-22 09:24:00+00:00,348.0,8.56,347.0,9.82,12.17,47.59359,-54.27349
2023-11-22 09:34:00+00:00,3.0,8.72,349.0,10.51,12.17,47.59359,-54.27349
2023-11-22 09:44:00+00:00,1.0,10.02,3.0,11.32,12.17,47.59359,-54.27349
2023-11-22 09:54:00+00:00,6.0,9.09,3.0,10.76,12.17,47.59359,-54.27349
2023-11-22 10:04:00+00:00,10.0,9.89,13.0,12.28,12.17,47.59359,-54.27349
2023-11-22 10:14:00+00:00,3.0,9.41,0.0,10.36,12.17,47.59359,-54.27349
2023-11-22 10:24:00+00:00,4.0,9.09,7.0,11.3,12.17,47.59359,-54.27349
2023-11-22 10:34:00+00:00,7.0,9.8,4.0,12.25,12.17,47.59359,-54.27349
2023-11-22 10:44:00+00:00,348.0,8.83,358.0,11.1,12.17,47.59359,-54.27349
2023-11-22 10:54:00+00:00,339.0,7.98,345.0,9.27,12.17,47.59359,-54.27349
2023-11-22 11:04:00+00:00,345.0,8.0,348.0,9.36,12.17,47.59359,-54.27349
2023-11-22 11:14:00+00:00,343.0,6.31,343.0,8.45,12.17,47.59359,-54.27349
2023-11-22 11:24:00+00:00,337.0,7.16,340.0,8.44,12.17,47.59359,-54.27349
2023-11-22 11:34:00+00:00,337.0,7.25,343.0,8.93,12.17,47.59359,-54.27349
2023-11-22 11:44:00+00:00,338.0,7.65,336.0,8.35,12.17,47.59359,-54.27349
2023-11-22 11:54:00+00:00,1.0,7.72,1.0,8.77,12.17,47.59359,-54.27349
2023-11-22 12:04:00+00:00,8.0,6.1,15.0,8.16,12.17,47.59359,-54.27349
2023-11-22 12:14:00+00:00,9.0,6.79,4.0,8.45,12.25,47.59359,-54.27349
2023-11-22 12:24:00+00:00,13.0,9.92,13.0,11.86,12.25,47.59359,-54.27349
2023-11-22 12:34:00+00:00,18.0,7.63,18.0,9.31,12.25,47.59359,-54.27349
2023-11-22 12:44:00+00:00,0.0,9.2,9.0,11.28,12.25,47.59359,-54.27349
2023-11-22 12:54:00+00:00,15.0,8.37,17.0,9.69,12.25,47.59359,-54.27349
2023-11-22 13:04:00+00:00,355.0,7.94,0.0,8.91,12.25,47.59359,-54.27349
2023-11-22 13:14:00+00:00,17.0,9.12,17.0,11.54,12.41,47.59359,-54.27349
2023-11-22 13:24:00+00:00,33.0,8.64,35.0,10.24,12.41,47.59359,-54.27349
2023-11-22 13:34:00+00:00,18.0,8.27,19.0,10.55,12.41,47.59359,-54.27349
2023-11-22 13:44:00+00:00,34.0,8.24,32.0,9.87,12.41,47.59359,-54.27349
2023-11-22 13:54:00+00:00,26.0,8.16,21.0,10.41,12.41,47.59359,-54.27349
2023-11-22 14:04:00+00:00,20.0,7.66,17.0,9.17,12.41,47.59359,-54.27349
2023-11-22 14:14:00+00:00,35.0,7.4,36.0,9.42,13.21,47.59359,-54.27349
2023-11-22 14:24:00+00:00,29.0,7.81,25.0,9.44,13.21,47.59359,-54.27349
2023-11-22 14:34:00+00:00,22.0,8.26,19.0,9.67,13.21,47.59359,-54.27349
2023-11-22 14:44:00+00:00,19.0,9.09,18.0,10.32,13.21,47.59359,-54.27349
2023-11-22 14:54:00+00:00,39.0,6.66,36.0,7.41,13.21,47.59359,-54.27349
2023-11-22 15:04:00+00:00,11.0,7.58,8.0,10.51,13.21,47.59359,-54.27349
2023-11-22 15:14:01+00:00,25.0,6.85,27.0,8.1,13.29,47.59359,-54.27349
2023-11-22 15:24:01+00:00,19.0,8.4,14.0,10.25,13.29,47.59359,-54.27349
2023-11-22 15:34:01+00:00,41.0,7.15,37.0,8.17,13.29,47.59359,-54.27349
2023-11-22 15:44:01+00:00,24.0,7.51,21.0,10.78,13.29,47.59359,-54.27349
2023-11-22 15:54:01+00:00,32.0,9.61,29.0,11.13,13.29,47.59359,-54.27349
2023-11-22 16:04:01+00:00,30.0,7.83,25.0,8.89,13.29,47.59359,-54.27349
2023-11-22 16:14:00+00:00,34.0,5.67,37.0,6.35,13.68,47.59359,-54.27349
2023-11-22 16:24:00+00:00,27.0,8.44,28.0,10.33,13.68,47.59359,-54.27349
2023-11-22 16:34:00+00:00,20.0,4.81,32.0,5.48,13.68,47.59359,-54.27349
2023-11-22 16:44:00+00:00,355.0,4.1,347.0,4.93,13.68,47.59359,-54.27349
2023-11-22 16:54:00+00:00,5.0,5.96,4.0,6.73,13.68,47.59359,-54.27349
2023-11-22 17:04:00+00:00,26.0,5.69,24.0,6.5,13.68,47.59359,-54.27349
2023-11-22 17:14:00+00:00,16.0,4.76,0.0,5.59,13.68,47.59359,-54.27349
2023-11-22 17:24:00+00:00,18.0,5.44,14.0,7.95,13.68,47.59359,-54.27349
2023-11-22 17:34:00+00:00,26.0,5.22,34.0,5.9,13.68,47.59359,-54.27349
2023-11-22 17:44:00+00:00,343.0,7.57,341.0,8.86,13.68,47.59359,-54.27349
2023-11-22 17:54:00+00:00,358.0,6.11,12.0,7.75,13.68,47.59359,-54.27349
2023-11-22 18:04:00+00:00,27.0,6.2,25.0,6.97,13.68,47.59359,-54.27349
2023-11-22 18:14:01+00:00,14.0,7.71,20.0,9.66,14.4,47.59359,-54.27349
2023-11-22 18:24:01+00:00,14.0,5.69,25.0,7.18,14.4,47.59359,-54.27349
2023-11-22 18:34:01+00:00,16.0,5.61,6.0,7.07,14.4,47.59359,-54.27349
2023-11-22 18:44:01+00:00,17.0,3.79,26.0,4.41,14.4,47.59359,-54.27349
2023-11-22 18:54:01+00:00,7.0,7.45,15.0,8.65,14.4,47.59359,-54.27349
2023-11-22 19:04:01+00:00,12.0,6.41,26.0,7.73,14.4,47.59359,-54.27349
2023-11-22 19:14:01+00:00,21.0,4.75,31.0,6.9,13.37,47.59359,-54.27349
2023-11-22 19:24:01+00:00,0.0,7.83,358.0,9.12,13.37,47.59359,-54.27349
2023-11-22 19:34:01+00:00,354.0,6.49,2.0,7.57,13.37,47.59359,-54.27349
2023-11-22 19:44:01+00:00,348.0,6.52,342.0,7.41,13.37,47.59359,-54.27349
2023-11-22 19:54:01+00:00,350.0,6.01,350.0,7.15,13.37,47.59359,-54.27349
2023-11-22 20:04:01+00:00,337.0,6.54,341.0,7.84,13.37,47.59359,-54.27349
2023-11-22 20:14:00+00:00,346.0,5.37,348.0,7.83,12.65,47.59359,-54.27349
2023-11-22 20:24:00+00:00,330.0,4.29,325.0,5.23,12.65,47.59359,-54.27349
2023-11-22 20:34:00+00:00,330.0,5.4,328.0,6.7,12.65,47.59359,-54.27349
2023-11-22 20:44:00+00:00,348.0,6.3,348.0,7.77,12.65,47.59359,-54.27349
2023-11-22 20:54:00+00:00,344.0,5.97,341.0,7.55,12.65,47.59359,-54.27349
2023-11-22 21:04:00+00:00,352.0,5.57,356.0,6.43,12.65,47.59359,-54.27349
2023-11-22 21:14:00+00:00,338.0,6.9,331.0,7.99,12.49,47.59359,-54.27349
2023-11-22 21:24:00+00:00,342.0,5.52,338.0,7.2,12.49,47.59359,-54.27349
2023-11-22 21:34:00+00:00,350.0,5.74,350.0,6.85,12.49,47.59359,-54.27349
2023-11-22 21:44:00+00:00,342.0,6.99,346.0,7.75,12.49,47.59359,-54.27349
2023-11-22 21:54:00+00:00,341.0,7.25,343.0,8.02,12.49,47.59359,-54.27349
2023-11-22 22:04:00+00:00,2.0,6.69,9.0,7.65,12.49,47.59359,-54.27349
2023-11-22 22:14:00+00:00,10.0,6.14,10.0,7.15,12.41,47.59359,-54.27349
2023-11-22 22:24:00+00:00,11.0,5.98,18.0,7.25,12.41,47.59359,-54.27349
2023-11-22 22:34:00+00:00,13.0,5.35,16.0,6.09,12.41,47.59359,-54.27349
2023-11-22 22:44:00+00:00,30.0,5.47,26.0,6.52,12.41,47.59359,-54.27349
2023-11-22 22:54:00+00:00,346.0,6.3,336.0,7.5,12.41,47.59359,-54.27349
2023-11-22 23:04:00+00:00,12.0,5.58,8.0,6.45,12.41,47.59359,-54.27349
2023-11-22 23:14:01+00:00,339.0,5.72,341.0,7.1,12.41,47.59359,-54.27349
2023-11-22 23:24:01+00:00,7.0,5.45,6.0,6.31,12.41,47.59359,-54.27349
2023-11-22 23:34:01+00:00,348.0,5.81,341.0,6.86,12.41,47.59359,-54.27349
2023-11-22 23:44:01+00:00,17.0,4.43,334.0,5.46,12.41,47.59359,-54.27349
2023-11-22 23:54:01+00:00,343.0,5.36,10.0,6.63,12.41,47.59359,-54.27349
